CGAML CYOO-CYYZ

Flight info

Callsign CGAML
Flight time N/A
Altitude 2500
Route
Aircraft C172

Departure

Time 2026-04-22 00:23
Airport Oshawa Executive Airport (CYOO)

Arrival

Time N/A
Airport Toronto Pearson International Airport (CYYZ)
Time Latitude Longitude Altitude Speed Heading
2026-04-22 00:15 43.92433 -78.89597 455 ft 0 kts 340°
2026-04-22 00:18 43.92433 -78.89598 455 ft 0 kts 341°
2026-04-22 00:18 43.92472 -78.89631 456 ft 7 kts 252°
2026-04-22 00:19 43.92435 -78.89773 459 ft 20 kts 253°
2026-04-22 00:19 43.92414 -78.89957 458 ft 17 kts 295°
2026-04-22 00:19 43.92453 -78.90102 457 ft 20 kts 290°
2026-04-22 00:19 43.92499 -78.90263 457 ft 13 kts 290°
2026-04-22 00:20 43.92500 -78.90318 457 ft 4 kts 241°
2026-04-22 00:20 43.92495 -78.90331 457 ft 0 kts 245°
2026-04-22 00:20 43.92478 -78.90354 456 ft 8 kts 201°
2026-04-22 00:20 43.92432 -78.90342 455 ft 5 kts 112°
2026-04-22 00:21 43.92431 -78.90338 455 ft 0 kts 107°
2026-04-22 00:21 43.92427 -78.90321 455 ft 13 kts 108°
2026-04-22 00:21 43.92326 -78.89977 461 ft 59 kts 107°
2026-04-22 00:22 43.92163 -78.89497 689 ft 54 kts 114°
2026-04-22 00:22 43.92030 -78.89027 909 ft 51 kts 110°
2026-04-22 00:22 43.91845 -78.88776 1086 ft 49 kts 151°
2026-04-22 00:22 43.91685 -78.88716 1195 ft 48 kts 167°
2026-04-22 00:23 43.91330 -78.88771 1356 ft 56 kts 189°
2026-04-22 00:23 43.90986 -78.89137 1518 ft 66 kts 209°
2026-04-22 00:23 43.90676 -78.89530 1765 ft 58 kts 213°
2026-04-22 00:23 43.90533 -78.89736 1848 ft 59 kts 208°
2026-04-22 00:24 43.90340 -78.89970 1924 ft 64 kts 206°
2026-04-22 00:24 43.89959 -78.90415 2029 ft 76 kts 210°
2026-04-22 00:24 43.89957 -78.90417 2030 ft 76 kts 210°
2026-04-22 00:26 43.89749 -78.90672 2195 ft 68 kts 212°
2026-04-22 00:26 43.89616 -78.90829 2219 ft 74 kts 212°
2026-04-22 00:26 43.89223 -78.91330 2311 ft 83 kts 213°
2026-04-22 00:26 43.88900 -78.92059 2341 ft 104 kts 256°
2026-04-22 00:27 43.88813 -78.93105 2358 ft 112 kts 257°
2026-04-22 00:27 43.88731 -78.94194 2363 ft 116 kts 258°
2026-04-22 00:27 43.88641 -78.95306 2360 ft 118 kts 257°
2026-04-22 00:27 43.88549 -78.96434 2417 ft 114 kts 258°
2026-04-22 00:28 43.88468 -78.97475 2563 ft 106 kts 257°
2026-04-22 00:28 43.88401 -78.98469 2711 ft 100 kts 257°
2026-04-22 00:28 43.88342 -78.99406 2860 ft 96 kts 257°
2026-04-22 00:28 43.88285 -79.00320 3012 ft 93 kts 257°
2026-04-22 00:29 43.88227 -79.01202 3161 ft 90 kts 253°
2026-04-22 00:29 43.88019 -79.01998 3309 ft 85 kts 238°
2026-04-22 00:29 43.87723 -79.02674 3459 ft 82 kts 235°
2026-04-22 00:29 43.87417 -79.03332 3611 ft 80 kts 234°
2026-04-22 00:30 43.87107 -79.03976 3764 ft 79 kts 234°
2026-04-22 00:30 43.86798 -79.04594 3908 ft 79 kts 234°
2026-04-22 00:30 43.86463 -79.05244 3950 ft 87 kts 234°
2026-04-22 00:30 43.86092 -79.05956 3980 ft 93 kts 234°
2026-04-22 00:31 43.85703 -79.06692 3980 ft 97 kts 234°
2026-04-22 00:31 43.85280 -79.07426 3976 ft 99 kts 232°
2026-04-22 00:31 43.84832 -79.08165 3976 ft 100 kts 232°
2026-04-22 00:31 43.84380 -79.08907 3973 ft 100 kts 232°
2026-04-22 00:32 43.83930 -79.09645 3973 ft 100 kts 232°
2026-04-22 00:32 43.83482 -79.10381 3976 ft 100 kts 232°
2026-04-22 00:32 43.83035 -79.11127 3975 ft 100 kts 232°
2026-04-22 00:32 43.82587 -79.11874 3974 ft 100 kts 232°
2026-04-22 00:33 43.82143 -79.12614 3974 ft 100 kts 232°
2026-04-22 00:33 43.81715 -79.13323 3974 ft 100 kts 232°
2026-04-22 00:33 43.81265 -79.14064 3969 ft 100 kts 232°
2026-04-22 00:33 43.80792 -79.14782 3963 ft 101 kts 225°
2026-04-22 00:34 43.80276 -79.15435 3963 ft 100 kts 226°
2026-04-22 00:34 43.79758 -79.16081 3968 ft 100 kts 226°
2026-04-22 00:34 43.79236 -79.16733 3972 ft 100 kts 226°
2026-04-22 00:34 43.78716 -79.17381 3970 ft 100 kts 226°
2026-04-22 00:35 43.78197 -79.18032 3968 ft 101 kts 226°
2026-04-22 00:35 43.77681 -79.18681 3968 ft 100 kts 226°
2026-04-22 00:35 43.77160 -79.19337 3967 ft 100 kts 226°
2026-04-22 00:35 43.76642 -79.19989 3967 ft 100 kts 226°
2026-04-22 00:36 43.76127 -79.20634 3969 ft 100 kts 226°
2026-04-22 00:36 43.75722 -79.21139 3971 ft 100 kts 226°
2026-04-22 00:37 43.75082 -79.21939 3971 ft 100 kts 226°
2026-04-22 00:37 43.74565 -79.22585 3975 ft 100 kts 226°
2026-04-22 00:37 43.74047 -79.23236 3974 ft 100 kts 226°
2026-04-22 00:37 43.73535 -79.23883 3972 ft 100 kts 226°
2026-04-22 00:38 43.73019 -79.24535 3980 ft 100 kts 226°
2026-04-22 00:38 43.72507 -79.25182 3976 ft 100 kts 226°
2026-04-22 00:38 43.71988 -79.25832 3974 ft 101 kts 226°
2026-04-22 00:38 43.71467 -79.26483 3977 ft 101 kts 226°
2026-04-22 00:39 43.70941 -79.27136 3976 ft 101 kts 226°